星链-33612 (STARLINK-33612)

导读

STARLINK-33612是美国太空探索技术公司星链星座的一员,于2025年3月18日发射。星链项目旨在构建全球卫星互联网星座,该卫星加入后进一步扩充了星链低轨卫星网络规模,可为全球偏远地区、海洋空域等场景提供高速互联网接入服务,推动全球互联覆盖范围拓展。

Basic Information
目录编号:
63325
目录名称:
STARLINK-33612
国际标识:
2025-057U
轨道中心:
EARTH
卫星名称:
星链-33612
卫星全名:
星链-33612 (STARLINK-33612)
卫星状态:
在轨 (已飞行535 天)
发射日期:
2025-03-18 UTC
国别 :
美国 (US)
星等 :
--
Orbit Information
数据来源 国际轨道数据 AOE轨道数据
星历时间 2026-09-04T07:53:26+0800
12小时前
查看轨道信息
2026-08-29T22:00:00+0800
5天前
查看轨道信息
半长轴 6861.164km 6861.209km
偏心率 0.0002169 0.000002
轨道倾角 43.003° 43.003°
近地点辐角 39.885° 159.215°
升交点赤经 104.160° 134.731°
平近点角 320.216° 283.300°
近地点 481.538km 483.058km
远地点 484.516km 483.086km
周期 94.266分钟 94.267分钟
每日圈数 15.275874 15.275725
Detailed Information
固有亮度:
5
最大亮度:
2.5
卫星平台:
Starlink V1.0
覆盖范围:
全球
运营商:
太空探索技术公司
运营商所在国:
美国
制造商(研发单位):
太空探索技术公司
制造商所在国:
美国
使用方式:
暂无
Satellite Introduction
Starlink 计划是 SpaceX 推出的全球卫星互联网项目,通过发射低轨道卫星,为全球尤其是偏远地区提供高速、低延迟的互联网服务。自 2019 年起,Starlink 已部署数千颗卫星,旨在缩小全球数字鸿沟,推动互联网普及。该项目还为军事、航空等行业提供通信支持,带来广泛经济效益。
2D Orbit Map
3D Orbit Map
Orbit Altitude Analysis Chart
Orbit Inclination Analysis Chart
Orbit Comprehensive Analysis Chart
View Comprehensive Chart
Conjunction Data List
Event ID Objects TCA Miss Dist (km) Collision Risk Probability Collision Risk Index (CRI) Action
CDM_260904-175105-778806-332521
2026-09-04T
17:51:05+0000
1.046 km
极远距离
1.775569E-5 中风险 0.6
CDM_260904-161605-778806-332521
2026-09-04T
16:16:56+0000
1.085 km
极远距离
1.562449E-5 中风险 0.59
CDM_260905-084505-778806-332521
2026-09-05T
08:45:32+0000
1.687 km
极远距离
3.591914E-6 低风险 0.46
CDM_260905-100405-690906-332521
2026-09-05T
10:04:57+0000
1.427 km
极远距离
3.060035E-6 低风险 0.45
CDM_260905-060905-690906-332521
2026-09-05T
06:09:34+0000
1.890 km
极远距离
1.377301E-6 低风险 0.38
CDM_260905-074305-690906-332521
2026-09-05T
07:43:44+0000
2.133 km
极远距离
1.043907E-6 低风险 0.35